QPF
0.01 0.00 0.00 0.00 0.00 0.00 0.00 0.00 0.00 0.00 0.00 0.00 0.00 0.00 0.00 0.00 0.00 0.00 0.00 0.00 0.00 0.00 0.00 0.00 0.01 0.01 0.01 0.01 0.02 0.01 0.01 0.01 0.01 0.01 0.01 0.01 0.00 0.00 0.00 0.00 0.00 0.00 0.00
0.01 0.00 0.00 0.00 0.00 0.00 0.00 0.00 0.00 0.00 0.00 0.00 0.00 0.00 0.00 0.00 0.00 0.00 0.00 0.00 0.00 0.00 0.00 0.00 0.00 0.01 0.01 0.01 0.01 0.02 0.02 0.02 0.02 0.01 0.01 0.01 0.01 0.01 0.01 0.00 0.00 0.00 0.00
0.01 0.01 0.00 0.00 0.00 0.00 0.00 0.00 0.00 0.00 0.00 0.00 0.00 0.00 0.00 0.00 0.00 0.00 0.00 0.00 0.00 0.00 0.00 0.00 0.00 0.00 0.01 0.01 0.01 0.02 0.02 0.02 0.01 0.01 0.01 0.01 0.01 0.01 0.01 0.01 0.01 0.01 0.00
0.01 0.01 0.00 0.00 0.00 0.00 0.00 0.00 0.00 0.00 0.00 0.00 0.00 0.00 0.00 0.00 0.00 0.00 0.00 0.00 0.00 0.00 0.00 0.00 0.00 0.00 0.00 0.01 0.01 0.02 0.02 0.01 0.01 0.01 0.01 0.01 0.01 0.01 0.01 0.01 0.01 0.01 0.01
0.02 0.01 0.01 0.01 0.00 0.00 0.00 0.00 0.00 0.00 0.00 0.00 0.00 0.00 0.00 0.00 0.00 0.00 0.00 0.00 0.00 0.00 0.00 0.00 0.00 0.00 0.00 0.00 0.01 0.01 0.01 0.01 0.01 0.01 0.01 0.01 0.01 0.01 0.02 0.02 0.02 0.02 0.02
0.02 0.02 0.01 0.01 0.01 0.01 0.00 0.00 0.00 0.00 0.01 0.01 0.01 0.00 0.00 0.00 0.00 0.00 0.00 0.00 0.00 0.00 0.00 0.00 0.00 0.00 0.00 0.00 0.01 0.02 0.01 0.01 0.01 0.01 0.00 0.01 0.01 0.01 0.02 0.02 0.03 0.03 0.03
0.06 0.05 0.04 0.04 0.04 0.03 0.03 0.03 0.02 0.02 0.01 0.02 0.01 0.01 0.00 0.00 0.00 0.00 0.00 0.00 0.00 0.00 0.00 0.00 0.00 0.00 0.00 0.00 0.01 0.01 0.01 0.01 0.01 0.00 0.00 0.00 0.00 0.01 0.01 0.02 0.02 0.04 0.05
0.08 0.07 0.06 0.06 0.06 0.06 0.05 0.05 0.05 0.04 0.03 0.03 0.02 0.02 0.01 0.00 0.00 0.00 0.00 0.00 0.00 0.00 0.00 0.00 0.00 0.01 0.01 0.00 0.00 0.00 0.00 0.01 0.00 0.01 0.01 0.01 0.01 0.01 0.01 0.02 0.02 0.03 0.05
0.10 0.09 0.08 0.07 0.06 0.06 0.06 0.06 0.06 0.07 0.06 0.06 0.06 0.03 0.02 0.01 0.00 0.00 0.00 0.00 0.00 0.00 0.00 0.00 0.00 0.00 0.00 0.00 0.00 0.00 0.00 0.00 0.01 0.01 0.01 0.01 0.01 0.01 0.01 0.02 0.03 0.03 0.04
0.14 0.12 0.12 0.12 0.11 0.10 0.10 0.09 0.08 0.08 0.08 0.06 0.05 0.04 0.04 0.03 0.02 0.01 0.01 0.00 0.00 0.00 0.00 0.00 0.00 0.00 0.00 0.00 0.00 0.00 0.00 0.00 0.01 0.01 0.02 0.02 0.02 0.02 0.02 0.02 0.03 0.03 0.04
0.15 0.13 0.14 0.16 0.15 0.14 0.14 0.13 0.11 0.10 0.09 0.07 0.06 0.05 0.04 0.03 0.03 0.02 0.01 0.01 0.00 0.00 0.00 0.00 0.00 0.00 0.00 0.00 0.00 0.00 0.00 0.00 0.01 0.01 0.03 0.04 0.03 0.02 0.02 0.02 0.02 0.02 0.03
0.20 0.18 0.16 0.16 0.15 0.15 0.15 0.14 0.12 0.11 0.10 0.09 0.09 0.07 0.05 0.04 0.03 0.02 0.01 0.01 0.00 0.00 0.00 0.00 0.00 0.00 0.00 0.00 0.00 0.00 0.00 0.00 0.01 0.02 0.03 0.03 0.01 0.01 0.01 0.02 0.02 0.02 0.02
0.23 0.21 0.20 0.18 0.17 0.15 0.14 0.13 0.12 0.10 0.09 0.08 0.08 0.07 0.06 0.05 0.03 0.02 0.01 0.01 0.00 0.00 0.00 0.00 0.00 0.00 0.00 0.00 0.00 0.00 0.00 0.00 0.01 0.01 0.02 0.01 0.01 0.00 0.00 0.01 0.01 0.01 0.01
0.21 0.21 0.20 0.20 0.21 0.21 0.18 0.15 0.13 0.11 0.09 0.08 0.06 0.06 0.05 0.04 0.03 0.02 0.01 0.01 0.01 0.00 0.00 0.00 0.00 0.00 0.00 0.00 0.00 0.00 0.00 0.00 0.00 0.00 0.01 0.01 0.01 0.01 0.01 0.01 0.01 0.01 0.01
0.22 0.23 0.21 0.20 0.20 0.21 0.21 0.19 0.17 0.14 0.12 0.10 0.08 0.07 0.05 0.04 0.02 0.01 0.01 0.01 0.01 0.00 0.00 0.00 0.00 0.00 0.00 0.00 0.00 0.00 0.00 0.00 0.00 0.00 0.00 0.00 0.00 0.00 0.00 0.01 0.00 0.01 0.00
0.20 0.19 0.18 0.18 0.19 0.19 0.20 0.19 0.17 0.14 0.11 0.09 0.07 0.06 0.06 0.04 0.03 0.02 0.01 0.01 0.00 0.00 0.00 0.00 0.00 0.00 0.00 0.00 0.00 0.00 0.00 0.00 0.00 0.00 0.00 0.00 0.00 0.00 0.00 0.00 0.00 0.00 0.00
0.13 0.13 0.12 0.12 0.13 0.14 0.15 0.13 0.11 0.09 0.07 0.06 0.05 0.04 0.04 0.03 0.02 0.01 0.01 0.01 0.00 0.00 0.00 0.00 0.00 0.00 0.00 0.00 0.00 0.00 0.00 0.00 0.00 0.01 0.00 0.00 0.00 0.00 0.00 0.00 0.00 0.00 0.00
0.09 0.10 0.09 0.08 0.07 0.07 0.08 0.08 0.07 0.06 0.05 0.04 0.04 0.03 0.03 0.03 0.02 0.01 0.01 0.00 0.00 0.00 0.00 0.00 0.00 0.00 0.00 0.00 0.00 0.00 0.00 0.00 0.00 0.01 0.00 0.00 0.00 0.00 0.00 0.00 0.00 0.00 0.00
0.05 0.07 0.06 0.06 0.06 0.05 0.05 0.05 0.05 0.05 0.04 0.03 0.03 0.02 0.02 0.02 0.02 0.01 0.01 0.01 0.00 0.00 0.00 0.00 0.00 0.00 0.00 0.00 0.00 0.00 0.00 0.00 0.00 0.00 0.00 0.00 0.00 0.00 0.00 0.00 0.00 0.01 0.00
0.03 0.04 0.04 0.04 0.04 0.03 0.03 0.03 0.04 0.04 0.03 0.02 0.02 0.02 0.01 0.01 0.01 0.01 0.01 0.01 0.00 0.00 0.00 0.00 0.00 0.00 0.00 0.00 0.00 0.00 0.00 0.00 0.00 0.00 0.00 0.00 0.00 0.00 0.00 0.00 0.00 0.01 0.01
0.03 0.03 0.02 0.03 0.04 0.03 0.02 0.01 0.02 0.02 0.02 0.02 0.02 0.02 0.02 0.02 0.02 0.02 0.02 0.01 0.01 0.01 0.01 0.00 0.00 0.00 0.00 0.00 0.00 0.00 0.00 0.00 0.00 0.00 0.00 0.00 0.00 0.00 0.00 0.00 0.00 0.00 0.01
0.01 0.02 0.02 0.02 0.02 0.03 0.03 0.03 0.02 0.02 0.03 0.03 0.03 0.02 0.02 0.02 0.02 0.02 0.02 0.01 0.01 0.00 0.00 0.00 0.00 0.00 0.00 0.00 0.00 0.00 0.00 0.00 0.00 0.00 0.00 0.00 0.00 0.00 0.00 0.00 0.00 0.00 0.00
0.01 0.01 0.01 0.01 0.02 0.02 0.03 0.03 0.03 0.03 0.02 0.02 0.02 0.02 0.03 0.03 0.02 0.02 0.01 0.01 0.01 0.00 0.00 0.00 0.00 0.00 0.00 0.00 0.00 0.00 0.00 0.00 0.00 0.00 0.00 0.00 0.00 0.00 0.00 0.00 0.00 0.00 0.00
0.01 0.01 0.02 0.01 0.01 0.02 0.03 0.02 0.03 0.02 0.02 0.02 0.02 0.02 0.02 0.02 0.02 0.02 0.02 0.01 0.01 0.00 0.00 0.00 0.00 0.00 0.00 0.00 0.00 0.00 0.00 0.00 0.00 0.00 0.00 0.00 0.00 0.00 0.00 0.00 0.00 0.00 0.00
0.00 0.01 0.02 0.02 0.01 0.01 0.02 0.03 0.03 0.02 0.02 0.02 0.02 0.02 0.02 0.02 0.02 0.01 0.01 0.01 0.00 0.00 0.00 0.00 0.00 0.00 0.00 0.00 0.00 0.00 0.00 0.00 0.00 0.00 0.00 0.00 0.00 0.00 0.00 0.00 0.00 0.00 0.00
0.01 0.01 0.02 0.03 0.02 0.02 0.02 0.03 0.03 0.02 0.02 0.02 0.02 0.02 0.02 0.01 0.01 0.01 0.00 0.00 0.00 0.00 0.00 0.00 0.00 0.00 0.00 0.00 0.00 0.00 0.00 0.00 0.00 0.00 0.00 0.00 0.00 0.00 0.00 0.00 0.00 0.00 0.00
MSLP
1014.67 1015.03 1015.38 1015.72 1016.06 1016.39 1016.70 1016.97 1017.20 1017.38 1017.50 1017.58 1017.64 1017.68 1017.73 1017.81 1017.93 1018.09 1018.28 1018.48 1018.68 1018.86 1019.01 1019.13 1019.20 1019.24 1019.25 1019.25 1019.24 1019.24 1019.24 1019.27 1019.31 1019.38 1019.47 1019.58 1019.70 1019.82 1019.92 1020.01 1020.06 1020.08 1020.07
1014.18 1014.56 1014.94 1015.33 1015.71 1016.08 1016.43 1016.73 1016.97 1017.17 1017.30 1017.39 1017.45 1017.51 1017.57 1017.65 1017.77 1017.91 1018.08 1018.25 1018.43 1018.59 1018.73 1018.83 1018.90 1018.93 1018.95 1018.94 1018.93 1018.92 1018.92 1018.94 1018.99 1019.08 1019.19 1019.33 1019.48 1019.63 1019.77 1019.87 1019.94 1019.98 1019.98
1013.65 1014.04 1014.46 1014.90 1015.34 1015.76 1016.15 1016.49 1016.77 1016.99 1017.14 1017.26 1017.34 1017.41 1017.48 1017.57 1017.67 1017.79 1017.93 1018.07 1018.21 1018.34 1018.45 1018.53 1018.59 1018.61 1018.62 1018.61 1018.59 1018.57 1018.57 1018.60 1018.66 1018.76 1018.90 1019.07 1019.26 1019.44 1019.61 1019.74 1019.82 1019.87 1019.89
1013.12 1013.53 1013.99 1014.47 1014.96 1015.43 1015.87 1016.25 1016.57 1016.82 1017.01 1017.16 1017.27 1017.36 1017.45 1017.54 1017.64 1017.75 1017.85 1017.96 1018.06 1018.15 1018.23 1018.29 1018.32 1018.34 1018.33 1018.31 1018.28 1018.26 1018.25 1018.28 1018.35 1018.48 1018.65 1018.85 1019.07 1019.28 1019.47 1019.62 1019.72 1019.77 1019.79
1012.64 1013.07 1013.55 1014.06 1014.59 1015.10 1015.58 1016.00 1016.36 1016.65 1016.88 1017.07 1017.22 1017.35 1017.47 1017.58 1017.68 1017.77 1017.86 1017.93 1018.00 1018.06 1018.11 1018.14 1018.16 1018.16 1018.14 1018.10 1018.06 1018.03 1018.02 1018.05 1018.13 1018.27 1018.45 1018.68 1018.93 1019.17 1019.38 1019.54 1019.64 1019.69 1019.70
1012.25 1012.67 1013.16 1013.69 1014.23 1014.77 1015.27 1015.72 1016.11 1016.45 1016.73 1016.97 1017.18 1017.36 1017.52 1017.65 1017.77 1017.86 1017.93 1017.99 1018.04 1018.07 1018.09 1018.11 1018.12 1018.10 1018.07 1018.03 1017.98 1017.93 1017.91 1017.93 1018.02 1018.16 1018.36 1018.61 1018.87 1019.12 1019.34 1019.49 1019.59 1019.61 1019.60
1011.95 1012.36 1012.84 1013.36 1013.89 1014.43 1014.94 1015.42 1015.84 1016.22 1016.56 1016.86 1017.13 1017.37 1017.57 1017.74 1017.88 1017.99 1018.06 1018.11 1018.14 1018.17 1018.19 1018.20 1018.20 1018.19 1018.15 1018.10 1018.04 1017.98 1017.95 1017.96 1018.04 1018.17 1018.37 1018.62 1018.89 1019.14 1019.35 1019.49 1019.56 1019.55 1019.49
1011.74 1012.13 1012.58 1013.07 1013.59 1014.11 1014.62 1015.10 1015.55 1015.98 1016.37 1016.73 1017.06 1017.36 1017.62 1017.83 1018.00 1018.11 1018.20 1018.25 1018.29 1018.32 1018.34 1018.37 1018.38 1018.38 1018.35 1018.30 1018.24 1018.18 1018.13 1018.13 1018.18 1018.31 1018.49 1018.72 1018.97 1019.21 1019.40 1019.52 1019.55 1019.51 1019.40
1011.62 1011.98 1012.39 1012.85 1013.33 1013.82 1014.31 1014.80 1015.27 1015.73 1016.17 1016.59 1016.98 1017.33 1017.64 1017.89 1018.08 1018.21 1018.30 1018.37 1018.42 1018.46 1018.51 1018.56 1018.60 1018.63 1018.63 1018.60 1018.54 1018.48 1018.42 1018.40 1018.44 1018.54 1018.70 1018.91 1019.13 1019.34 1019.50 1019.59 1019.59 1019.50 1019.35
1011.54 1011.88 1012.25 1012.67 1013.10 1013.56 1014.04 1014.52 1015.00 1015.49 1015.97 1016.44 1016.88 1017.27 1017.61 1017.89 1018.10 1018.25 1018.35 1018.43 1018.49 1018.57 1018.65 1018.74 1018.82 1018.89 1018.92 1018.92 1018.89 1018.84 1018.78 1018.75 1018.77 1018.85 1018.97 1019.15 1019.34 1019.52 1019.65 1019.70 1019.67 1019.55 1019.35
1011.48 1011.79 1012.13 1012.50 1012.90 1013.33 1013.77 1014.24 1014.73 1015.24 1015.75 1016.26 1016.73 1017.16 1017.52 1017.82 1018.04 1018.19 1018.31 1018.40 1018.49 1018.60 1018.72 1018.86 1018.99 1019.11 1019.20 1019.24 1019.24 1019.21 1019.17 1019.14 1019.14 1019.19 1019.29 1019.43 1019.59 1019.73 1019.83 1019.86 1019.80 1019.66 1019.44
1011.40 1011.69 1012.00 1012.33 1012.69 1013.08 1013.50 1013.96 1014.45 1014.97 1015.50 1016.02 1016.52 1016.97 1017.35 1017.65 1017.88 1018.05 1018.18 1018.29 1018.41 1018.55 1018.72 1018.91 1019.10 1019.28 1019.42 1019.52 1019.56 1019.56 1019.54 1019.52 1019.52 1019.55 1019.63 1019.74 1019.86 1019.98 1020.05 1020.06 1019.99 1019.84 1019.61
1011.28 1011.54 1011.82 1012.12 1012.44 1012.80 1013.19 1013.63 1014.11 1014.63 1015.17 1015.71 1016.22 1016.69 1017.08 1017.40 1017.64 1017.82 1017.97 1018.11 1018.27 1018.46 1018.68 1018.92 1019.17 1019.40 1019.60 1019.74 1019.83 1019.87 1019.88 1019.87 1019.87 1019.90 1019.97 1020.05 1020.15 1020.24 1020.29 1020.29 1020.21 1020.06 1019.85
1011.09 1011.33 1011.58 1011.84 1012.13 1012.45 1012.81 1013.23 1013.70 1014.21 1014.76 1015.31 1015.83 1016.31 1016.73 1017.06 1017.33 1017.55 1017.73 1017.92 1018.12 1018.35 1018.62 1018.91 1019.21 1019.49 1019.74 1019.93 1020.05 1020.13 1020.16 1020.18 1020.19 1020.23 1020.28 1020.35 1020.43 1020.49 1020.53 1020.52 1020.45 1020.31 1020.12
1010.87 1011.07 1011.28 1011.50 1011.75 1012.04 1012.37 1012.77 1013.22 1013.73 1014.27 1014.83 1015.37 1015.87 1016.31 1016.69 1017.00 1017.26 1017.50 1017.74 1018.00 1018.28 1018.60 1018.93 1019.27 1019.58 1019.85 1020.07 1020.22 1020.33 1020.39 1020.43 1020.46 1020.50 1020.55 1020.61 1020.68 1020.73 1020.75 1020.73 1020.67 1020.55 1020.37
1010.63 1010.78 1010.95 1011.14 1011.35 1011.60 1011.91 1012.28 1012.72 1013.22 1013.76 1014.32 1014.88 1015.40 1015.89 1016.31 1016.68 1017.01 1017.32 1017.62 1017.93 1018.27 1018.63 1018.99 1019.35 1019.67 1019.95 1020.18 1020.35 1020.47 1020.55 1020.61 1020.66 1020.71 1020.77 1020.83 1020.88 1020.92 1020.93 1020.91 1020.84 1020.73 1020.58
1010.43 1010.53 1010.66 1010.81 1010.99 1011.21 1011.49 1011.84 1012.26 1012.75 1013.29 1013.85 1014.43 1014.98 1015.51 1015.99 1016.42 1016.82 1017.21 1017.58 1017.95 1018.33 1018.72 1019.09 1019.45 1019.77 1020.04 1020.25 1020.42 1020.54 1020.63 1020.71 1020.78 1020.85 1020.92 1020.98 1021.03 1021.06 1021.06 1021.03 1020.96 1020.86 1020.72
1010.33 1010.38 1010.46 1010.58 1010.73 1010.93 1011.19 1011.53 1011.93 1012.41 1012.93 1013.50 1014.09 1014.67 1015.23 1015.76 1016.25 1016.72 1017.17 1017.60 1018.02 1018.44 1018.84 1019.21 1019.55 1019.84 1020.08 1020.27 1020.42 1020.54 1020.64 1020.73 1020.82 1020.91 1021.00 1021.07 1021.13 1021.15 1021.14 1021.10 1021.02 1020.92 1020.79
1010.37 1010.38 1010.42 1010.51 1010.64 1010.82 1011.07 1011.39 1011.78 1012.24 1012.76 1013.32 1013.91 1014.49 1015.08 1015.64 1016.18 1016.69 1017.18 1017.66 1018.11 1018.54 1018.94 1019.30 1019.60 1019.86 1020.06 1020.22 1020.35 1020.46 1020.57 1020.68 1020.79 1020.91 1021.02 1021.12 1021.18 1021.20 1021.19 1021.13 1021.05 1020.95 1020.82
1010.57 1010.53 1010.55 1010.61 1010.73 1010.91 1011.15 1011.46 1011.83 1012.28 1012.78 1013.32 1013.89 1014.47 1015.04 1015.61 1016.17 1016.70 1017.22 1017.71 1018.17 1018.60 1018.98 1019.32 1019.59 1019.81 1019.97 1020.10 1020.21 1020.32 1020.43 1020.57 1020.71 1020.86 1021.01 1021.12 1021.20 1021.23 1021.22 1021.16 1021.07 1020.96 1020.84
1010.91 1010.83 1010.82 1010.88 1010.99 1011.16 1011.39 1011.69 1012.06 1012.48 1012.95 1013.46 1014.00 1014.55 1015.10 1015.65 1016.19 1016.72 1017.23 1017.71 1018.17 1018.58 1018.94 1019.24 1019.49 1019.67 1019.81 1019.92 1020.02 1020.13 1020.26 1020.42 1020.60 1020.79 1020.97 1021.11 1021.21 1021.26 1021.25 1021.19 1021.09 1020.98 1020.86
1011.33 1011.22 1011.20 1011.23 1011.34 1011.50 1011.73 1012.02 1012.37 1012.77 1013.21 1013.68 1014.17 1014.67 1015.18 1015.69 1016.19 1016.69 1017.17 1017.64 1018.07 1018.46 1018.80 1019.08 1019.30 1019.47 1019.60 1019.70 1019.81 1019.93 1020.09 1020.28 1020.49 1020.72 1020.93 1021.11 1021.24 1021.30 1021.29 1021.24 1021.14 1021.02 1020.91
1011.76 1011.63 1011.58 1011.60 1011.69 1011.84 1012.06 1012.33 1012.66 1013.03 1013.44 1013.86 1014.31 1014.76 1015.21 1015.67 1016.13 1016.59 1017.04 1017.48 1017.89 1018.26 1018.59 1018.86 1019.07 1019.24 1019.37 1019.49 1019.61 1019.77 1019.95 1020.17 1020.42 1020.68 1020.93 1021.13 1021.28 1021.35 1021.36 1021.30 1021.21 1021.09 1020.98
1012.15 1011.98 1011.89 1011.87 1011.93 1012.06 1012.25 1012.51 1012.81 1013.15 1013.53 1013.92 1014.32 1014.73 1015.14 1015.56 1015.98 1016.40 1016.82 1017.24 1017.63 1018.00 1018.32 1018.60 1018.82 1019.01 1019.17 1019.32 1019.47 1019.65 1019.87 1020.12 1020.40 1020.68 1020.95 1021.17 1021.33 1021.42 1021.43 1021.38 1021.29 1021.17 1021.06
1012.42 1012.21 1012.06 1011.99 1012.00 1012.08 1012.24 1012.46 1012.74 1013.06 1013.41 1013.78 1014.16 1014.54 1014.93 1015.32 1015.72 1016.12 1016.53 1016.93 1017.33 1017.70 1018.04 1018.33 1018.59 1018.81 1019.01 1019.20 1019.39 1019.61 1019.85 1020.13 1020.42 1020.72 1020.99 1021.22 1021.39 1021.48 1021.49 1021.45 1021.36 1021.24 1021.13
1012.57 1012.29 1012.07 1011.93 1011.86 1011.89 1011.99 1012.17 1012.41 1012.71 1013.05 1013.41 1013.78 1014.16 1014.55 1014.94 1015.34 1015.75 1016.16 1016.58 1016.99 1017.38 1017.75 1018.08 1018.38 1018.65 1018.89 1019.12 1019.35 1019.60 1019.87 1020.16 1020.46 1020.76 1021.04 1021.26 1021.42 1021.52 1021.53 1021.49 1021.40 1021.29 1021.19
Thickness
5694 5692 5692 5690 5690 5689 5689 5689 5689 5690 5691 5692 5692 5692 5692 5691 5691 5690 5688 5687 5685 5684 5683 5682 5681 5680 5679 5678 5676 5675 5673 5670 5667 5665 5662 5659 5656 5653 5650 5647 5644 5641 5638
5689 5689 5689 5688 5688 5687 5687 5686 5687 5688 5688 5688 5688 5688 5687 5687 5687 5686 5685 5683 5681 5680 5679 5678 5677 5676 5675 5674 5672 5670 5668 5666 5663 5660 5657 5654 5651 5648 5645 5642 5639 5636 5634
5684 5684 5684 5684 5684 5684 5683 5683 5684 5684 5683 5683 5683 5683 5683 5682 5682 5681 5680 5679 5677 5676 5674 5673 5672 5671 5670 5669 5667 5665 5663 5660 5657 5654 5651 5648 5645 5643 5640 5637 5634 5631 5629
5678 5679 5679 5679 5680 5680 5679 5678 5678 5677 5676 5676 5676 5677 5677 5677 5676 5676 5675 5674 5672 5671 5669 5667 5666 5665 5664 5662 5661 5659 5657 5654 5651 5648 5645 5642 5639 5636 5634 5631 5628 5625 5623
5673 5673 5673 5674 5674 5674 5673 5673 5672 5671 5670 5669 5670 5670 5671 5670 5670 5670 5669 5668 5667 5665 5663 5661 5660 5659 5657 5656 5654 5652 5650 5647 5644 5641 5639 5636 5633 5630 5627 5624 5622 5619 5617
5667 5667 5667 5668 5668 5668 5667 5666 5665 5665 5665 5664 5664 5664 5664 5664 5664 5663 5662 5661 5660 5658 5657 5655 5653 5652 5650 5649 5647 5645 5642 5640 5637 5634 5631 5629 5626 5623 5620 5618 5615 5613 5610
5661 5661 5661 5662 5662 5661 5661 5660 5660 5658 5658 5658 5655 5653 5654 5657 5657 5657 5656 5654 5653 5651 5649 5647 5646 5644 5642 5640 5638 5636 5634 5632 5629 5626 5624 5621 5618 5615 5613 5610 5608 5605 5603
5655 5655 5655 5655 5655 5655 5655 5655 5654 5652 5651 5651 5648 5644 5641 5643 5647 5649 5648 5646 5645 5643 5641 5639 5637 5636 5634 5632 5629 5627 5625 5623 5621 5618 5615 5613 5610 5607 5605 5602 5600 5598 5596
5649 5649 5650 5650 5649 5650 5649 5650 5649 5647 5644 5644 5644 5640 5636 5635 5637 5638 5639 5638 5637 5635 5633 5631 5629 5627 5625 5623 5620 5618 5615 5613 5611 5609 5607 5604 5601 5598 5595 5593 5591 5589 5587
5644 5644 5644 5644 5644 5644 5644 5644 5644 5643 5640 5637 5636 5637 5636 5634 5630 5627 5628 5629 5629 5627 5625 5623 5620 5618 5616 5613 5611 5608 5606 5604 5601 5599 5597 5595 5592 5588 5585 5583 5580 5578 5577
5637 5638 5638 5638 5639 5638 5638 5639 5638 5637 5635 5632 5631 5629 5629 5627 5627 5622 5618 5618 5618 5619 5617 5614 5612 5609 5606 5604 5601 5598 5596 5594 5591 5589 5587 5584 5581 5577 5574 5572 5570 5568 5566
5629 5631 5631 5633 5633 5632 5633 5632 5632 5630 5629 5628 5626 5625 5622 5620 5618 5616 5612 5611 5609 5609 5608 5606 5603 5600 5597 5594 5590 5587 5585 5583 5580 5578 5575 5572 5569 5565 5562 5560 5558 5557 5555
5623 5623 5624 5626 5626 5626 5626 5626 5624 5623 5622 5620 5619 5618 5617 5615 5614 5611 5607 5604 5602 5600 5599 5597 5594 5591 5588 5584 5580 5577 5574 5571 5569 5566 5564 5560 5556 5553 5550 5548 5547 5545 5544
5618 5618 5618 5618 5618 5618 5618 5618 5616 5614 5613 5612 5611 5609 5607 5606 5605 5603 5600 5596 5593 5591 5590 5587 5585 5582 5578 5574 5570 5567 5563 5560 5558 5555 5551 5548 5544 5541 5538 5537 5535 5534 5534
5612 5612 5611 5610 5610 5609 5609 5609 5607 5606 5605 5604 5602 5600 5598 5596 5595 5593 5591 5589 5585 5582 5580 5579 5574 5571 5568 5563 5560 5556 5553 5549 5546 5543 5539 5536 5532 5529 5527 5525 5524 5523 5523
5604 5603 5602 5603 5602 5601 5600 5599 5599 5597 5595 5594 5593 5591 5588 5586 5585 5583 5581 5579 5576 5574 5572 5569 5565 5561 5558 5553 5549 5545 5541 5538 5534 5531 5527 5524 5521 5518 5516 5514 5512 5512 5512
5596 5596 5595 5594 5594 5592 5591 5589 5589 5587 5586 5585 5583 5582 5579 5577 5575 5572 5570 5568 5566 5563 5561 5558 5555 5551 5547 5542 5538 5534 5530 5527 5523 5520 5516 5513 5510 5507 5505 5503 5502 5501 5501
5586 5586 5585 5585 5584 5583 5581 5580 5579 5578 5577 5576 5574 5572 5569 5568 5565 5562 5559 5557 5555 5553 5550 5547 5543 5539 5536 5532 5528 5523 5519 5516 5512 5509 5505 5502 5499 5496 5494 5492 5491 5490 5491
5575 5575 5575 5575 5574 5573 5572 5572 5571 5569 5569 5567 5565 5563 5561 5558 5555 5552 5550 5547 5544 5542 5539 5536 5532 5528 5524 5521 5516 5512 5509 5505 5502 5498 5495 5491 5488 5486 5483 5482 5480 5480 5481
5563 5563 5563 5563 5563 5563 5562 5562 5561 5559 5558 5557 5555 5553 5552 5549 5546 5543 5540 5537 5534 5531 5528 5525 5521 5518 5514 5511 5507 5502 5498 5495 5492 5488 5484 5481 5479 5476 5474 5472 5471 5471 5472
5549 5549 5550 5550 5550 5550 5551 5550 5550 5548 5546 5544 5543 5542 5540 5539 5537 5534 5530 5527 5524 5521 5517 5515 5512 5508 5504 5500 5497 5494 5490 5485 5482 5478 5475 5472 5470 5467 5465 5463 5462 5462 5463
5533 5534 5535 5536 5537 5537 5537 5537 5537 5536 5534 5533 5531 5529 5527 5526 5524 5522 5520 5517 5514 5510 5507 5505 5502 5499 5497 5494 5490 5486 5480 5476 5471 5469 5465 5463 5461 5458 5456 5455 5454 5454 5455
5517 5518 5520 5521 5522 5523 5523 5524 5523 5523 5522 5520 5518 5515 5514 5513 5511 5509 5507 5505 5502 5500 5499 5496 5493 5491 5489 5486 5482 5476 5472 5468 5464 5461 5457 5454 5452 5450 5449 5448 5447 5447 5447
5500 5502 5504 5506 5507 5508 5509 5509 5509 5507 5507 5506 5505 5504 5502 5500 5498 5496 5493 5491 5489 5488 5487 5485 5483 5482 5480 5477 5474 5469 5464 5459 5454 5452 5450 5445 5444 5442 5442 5440 5440 5440 5440
5481 5483 5486 5488 5490 5492 5493 5494 5493 5492 5491 5491 5491 5491 5490 5488 5487 5485 5482 5479 5477 5475 5475 5474 5473 5471 5469 5467 5464 5459 5453 5448 5445 5442 5441 5438 5436 5435 5434 5433 5433 5433 5433
5462 5464 5467 5469 5472 5475 5477 5478 5478 5477 5476 5476 5476 5477 5477 5476 5476 5475 5471 5469 5466 5465 5464 5462 5460 5459 5457 5455 5453 5450 5446 5440 5437 5434 5433 5431 5429 5427 5424 5426 5426 5426 5426